| time (UTC) | temp F | wind direction | speed knots | gust knots | rain 1hr in | rain 24hr in | rain mn in | humidity % | barometer mb |
| 20260902231747 | 92 | 161 | 3.5 | 8.7 | 0.00 | 0.00 | 0.00 | 56 | 1015.1 |
| 20260902231521 | 91 | 150 | 3.5 | 7.8 | 0.00 | 0.00 | 0.00 | 55 | 1013.3 |
| 20260902231247 | 92 | 142 | 2.6 | 8.7 | 0.00 | 0.00 | 0.00 | 55 | 1015.1 |
| 20260902230940 | 92 | 178 | 2.6 | 6.1 | 0.00 | 0.00 | 0.00 | 56 | 1015.2 |
| 20260902230441 | 92 | 184 | 2.6 | 6.1 | 0.00 | 0.00 | 0.00 | 55 | 1015.2 |
| 20260902230035 | 92 | 91 | 1.7 | 5.2 | 0.00 | 0.00 | 0.00 | 55 | 1013.5 |
| 20260902225647 | 92 | 192 | 3.5 | 8.7 | 0.00 | 0.00 | 0.00 | 54 | 1015.2 |
| 20260902225147 | 92 | 196 | 3.5 | 9.6 | 0.00 | 0.00 | 0.00 | 54 | 1015.2 |
| 20260902224638 | 92 | 205 | 2.6 | 8.7 | 0.00 | 0.00 | 0.00 | 54 | 1013.5 |
| 20260902224619 | 93 | 206 | 3.5 | 9.6 | 0.00 | 0.00 | 0.00 | 54 | 1015.2 |
| 20260902224120 | 93 | 112 | 3.5 | 7.8 | 0.00 | 0.00 | 0.00 | 53 | 1015.3 |
| 20260902223553 | 93 | 159 | 2.6 | 8.7 | 0.00 | 0.00 | 0.00 | 54 | 1015.2 |
| 20260902223051 | 93 | 196 | 2.6 | 8.7 | 0.00 | 0.00 | 0.00 | 54 | 1015.3 |
| 20260902223019 | 93 | 196 | 2.6 | 8.7 | 0.00 | 0.00 | 0.00 | 53 | 1013.5 |
| 20260902222523 | 94 | 226 | 3.5 | 7.8 | 0.00 | 0.00 | 0.00 | 53 | 1015.3 |
| 20260902222442 | 94 | 175 | 3.5 | 8.7 | 0.00 | 0.00 | 0.00 | 52 | 1015.3 |
| 20260902221617 | 93 | 120 | 3.5 | 8.7 | 0.00 | 0.00 | 0.00 | 52 | 1013.6 |
| 20260902221434 | 94 | 188 | 2.6 | 8.7 | 0.00 | 0.00 | 0.00 | 51 | 1015.4 |
| 20260902220934 | 94 | 201 | 2.6 | 8.7 | 0.00 | 0.00 | 0.00 | 52 | 1015.4 |
| 20260902220408 | 94 | 178 | 3.5 | 7.8 | 0.00 | 0.00 | 0.00 | 52 | 1015.4 |
| 20260902220014 | 94 | 176 | 2.6 | 7.8 | 0.00 | 0.00 | 0.00 | 51 | 1013.6 |
| 20260902215853 | 94 | 199 | 3.5 | 8.7 | 0.00 | 0.00 | 0.00 | 52 | 1015.4 |
| 20260902215352 | 94 | 178 | 3.5 | 8.7 | 0.00 | 0.00 | 0.00 | 52 | 1015.4 |
| 20260902214852 | 94 | 176 | 3.5 | 10.4 | 0.00 | 0.00 | 0.00 | 53 | 1015.4 |
| 20260902214539 | 94 | 101 | 2.6 | 10.4 | 0.00 | 0.00 | 0.00 | 51 | 1013.6 |
| 20260902214351 | 94 | 87 | 4.3 | 10.4 | 0.00 | 0.00 | 0.00 | 51 | 1015.4 |
| 20260902213831 | 95 | 195 | 2.6 | 8.7 | 0.00 | 0.00 | 0.00 | 51 | 1015.4 |
| 20260902213328 | 95 | 165 | 2.6 | 7.8 | 0.00 | 0.00 | 0.00 | 51 | 1015.4 |
| 20260902213015 | 94 | 164 | 1.7 | 10.4 | 0.00 | 0.00 | 0.00 | 51 | 1013.6 |
| 20260902212826 | 95 | 222 | 3.5 | 10.4 | 0.00 | 0.00 | 0.00 | 51 | 1015.4 |
| 20260902212312 | 95 | 192 | 3.5 | 9.6 | 0.00 | 0.00 | 0.00 | 50 | 1015.5 |
| 20260902211747 | 95 | 158 | 4.3 | 9.6 | 0.00 | 0.00 | 0.00 | 51 | 1015.5 |
| 20260902211542 | 94 | 151 | 4.3 | 11.3 | 0.00 | 0.00 | 0.00 | 50 | 1013.8 |
| 20260902211248 | 95 | 161 | 4.3 | 11.3 | 0.00 | 0.00 | 0.00 | 51 | 1015.5 |
| 20260902210721 | 95 | 162 | 3.5 | 10.4 | 0.00 | 0.00 | 0.00 | 52 | 1015.6 |
| 20260902210203 | 96 | 204 | 3.5 | 10.4 | 0.00 | 0.00 | 0.00 | 50 | 1015.5 |
| 20260902210109 | 95 | 214 | 1.7 | 7.0 | 0.00 | 0.00 | 0.00 | 51 | 1013.8 |
| 20260902205703 | 95 | 163 | 3.5 | 7.0 | 0.00 | 0.00 | 0.00 | 53 | 1015.6 |
| 20260902205146 | 95 | 225 | 4.3 | 9.6 | 0.00 | 0.00 | 0.00 | 51 | 1015.7 |
| 20260902204647 | 95 | 193 | 3.5 | 9.6 | 0.00 | 0.00 | 0.00 | 49 | 1015.6 |
| 20260902204623 | 95 | 178 | 3.5 | 8.7 | 0.00 | 0.00 | 0.00 | 51 | 1015.6 |
| 20260902204548 | 95 | 199 | 4.3 | 9.6 | 0.00 | 0.00 | 0.00 | 50 | 1013.9 |
| 20260902203629 | 95 | 188 | 3.5 | 9.6 | 0.00 | 0.00 | 0.00 | 51 | 1015.7 |
| 20260902203356 | 95 | 213 | 3.5 | 9.6 | 0.00 | 0.00 | 0.00 | 50 | 1015.7 |
| 20260902203101 | 95 | 214 | 4.3 | 9.6 | 0.00 | 0.00 | 0.00 | 50 | 1014.0 |
| 20260902202614 | 95 | 132 | 4.3 | 9.6 | 0.00 | 0.00 | 0.00 | 51 | 1015.7 |
| 20260902202055 | 95 | 90 | 3.5 | 9.6 | 0.00 | 0.00 | 0.00 | 51 | 1015.7 |
| 20260902201634 | 95 | 171 | 3.5 | 7.8 | 0.00 | 0.00 | 0.00 | 49 | 1014.0 |
| 20260902201600 | 96 | 140 | 3.5 | 8.7 | 0.00 | 0.00 | 0.00 | 49 | 1015.8 |
| 20260902201056 | 95 | 219 | 3.5 | 8.7 | 0.00 | 0.00 | 0.00 | 50 | 1015.8 |
| 20260902200533 | 95 | 98 | 2.6 | 10.4 | 0.00 | 0.00 | 0.00 | 49 | 1015.8 |
| 20260902200029 | 95 | 130 | 0.9 | 10.4 | 0.00 | 0.00 | 0.00 | 50 | 1014.2 |
| 20260902200027 | 95 | 130 | 3.5 | 10.4 | 0.00 | 0.00 | 0.00 | 50 | 1015.9 |
| 20260902195526 | 95 | 205 | 5.2 | 10.4 | 0.00 | 0.00 | 0.00 | 49 | 1015.9 |
| 20260902195026 | 95 | 213 | 4.3 | 10.4 | 0.00 | 0.00 | 0.00 | 50 | 1016.0 |
| 20260902194528 | 95 | 132 | 4.3 | 9.6 | 0.00 | 0.00 | 0.00 | 49 | 1016.1 |
| 20260902194010 | 95 | 151 | 4.3 | 9.6 | 0.00 | 0.00 | 0.00 | 50 | 1016.1 |
| 20260902193509 | 95 | 178 | 3.5 | 9.6 | 0.00 | 0.00 | 0.00 | 50 | 1016.1 |
| 20260902193026 | 94 | 103 | 2.6 | 9.6 | 0.00 | 0.00 | 0.00 | 50 | 1014.5 |
| 20260902192951 | 95 | 114 | 3.5 | 9.6 | 0.00 | 0.00 | 0.00 | 50 | 1016.2 |
| 20260902192430 | 94 | 205 | 3.5 | 8.7 | 0.00 | 0.00 | 0.00 | 53 | 1016.3 |
| 20260902191930 | 94 | 99 | 4.3 | 10.4 | 0.00 | 0.00 | 0.00 | 50 | 1016.3 |
| 20260902191513 | 94 | 142 | 3.5 | 9.6 | 0.00 | 0.00 | 0.00 | 51 | 1014.7 |
| 20260902191428 | 94 | 100 | 2.6 | 10.4 | 0.00 | 0.00 | 0.00 | 53 | 1016.4 |
| 20260902190929 | 94 | 152 | 2.6 | 7.8 | 0.00 | 0.00 | 0.00 | 51 | 1016.4 |
| 20260902190428 | 93 | 163 | 3.5 | 9.6 | 0.00 | 0.00 | 0.00 | 52 | 1016.5 |
| 20260902190005 | 94 | 113 | 4.3 | 8.7 | 0.00 | 0.00 | 0.00 | 51 | 1014.9 |
| 20260902185927 | 94 | 132 | 4.3 | 9.6 | 0.00 | 0.00 | 0.00 | 51 | 1016.6 |
| 20260902185426 | 94 | 181 | 4.3 | 9.6 | 0.00 | 0.00 | 0.00 | 50 | 1016.6 |
| 20260902184929 | 94 | 268 | 3.5 | 9.6 | 0.00 | 0.00 | 0.00 | 52 | 1016.6 |
| 20260902184554 | 94 | 200 | 3.5 | 9.6 | 0.00 | 0.00 | 0.00 | 51 | 1014.9 |
| 20260902184406 | 94 | 206 | 2.6 | 9.6 | 0.00 | 0.00 | 0.00 | 50 | 1016.6 |
| 20260902184105 | 94 | 188 | 4.3 | 10.4 | 0.00 | 0.00 | 0.00 | 50 | 1016.7 |
| 20260902183316 | 94 | 112 | 5.2 | 10.4 | 0.00 | 0.00 | 0.00 | 50 | 1016.8 |
| 20260902183046 | 93 | 130 | 6.1 | 10.4 | 0.00 | 0.00 | 0.00 | 50 | 1015.0 |
| 20260902182747 | 94 | 203 | 3.5 | 9.6 | 0.00 | 0.00 | 0.00 | 51 | 1016.8 |
| 20260902182223 | 93 | 150 | 2.6 | 8.7 | 0.00 | 0.00 | 0.00 | 52 | 1016.7 |
| 20260902181917 | 92 | 228 | 2.6 | 8.7 | 0.00 | 0.00 | 0.00 | 53 | 1017.0 |
| 20260902181620 | 92 | 203 | 2.6 | 8.7 | 0.00 | 0.00 | 0.00 | 53 | 1015.2 |
| 20260902181200 | 93 | 212 | 2.6 | 10.4 | 0.00 | 0.00 | 0.00 | 53 | 1017.0 |
| 20260902181113 | 93 | 166 | 3.5 | 10.4 | 0.00 | 0.00 | 0.00 | 52 | 1017.0 |
| 20260902180106 | 93 | 199 | 4.3 | 9.6 | 0.00 | 0.00 | 0.00 | 53 | 1017.1 |
| 20260902180057 | 93 | 215 | 1.7 | 8.7 | 0.00 | 0.00 | 0.00 | 53 | 1015.3 |
| 20260902175828 | 93 | 136 | 3.5 | 9.6 | 0.00 | 0.00 | 0.00 | 53 | 1017.1 |
| 20260902175105 | 92 | 193 | 3.5 | 9.6 | 0.00 | 0.00 | 0.00 | 57 | 1017.1 |
| 20260902174822 | 92 | 209 | 4.3 | 8.7 | 0.00 | 0.00 | 0.00 | 56 | 1017.2 |
| 20260902174540 | 91 | 135 | 2.6 | 9.6 | 0.00 | 0.00 | 0.00 | 56 | 1015.4 |
| 20260902174032 | 92 | 118 | 3.5 | 11.3 | 0.00 | 0.00 | 0.00 | 55 | 1017.4 |
| 20260902173743 | 93 | 148 | 3.5 | 8.7 | 0.00 | 0.00 | 0.00 | 57 | 1017.4 |
| 20260902173025 | 93 | 103 | 4.3 | 9.6 | 0.00 | 0.00 | 0.00 | 56 | 1017.5 |
| 20260902173010 | 93 | 122 | 3.5 | 9.6 | 0.00 | 0.00 | 0.00 | 56 | 1015.6 |
| 20260902172744 | 93 | 122 | 3.5 | 12.2 | 0.00 | 0.00 | 0.00 | 56 | 1017.4 |
| 20260902171954 | 93 | 185 | 3.5 | 12.2 | 0.00 | 0.00 | 0.00 | 57 | 1017.5 |
| 20260902171506 | 92 | 166 | 2.6 | 9.6 | 0.00 | 0.00 | 0.00 | 55 | 1015.7 |
| 20260902171428 | 93 | 123 | 3.5 | 9.6 | 0.00 | 0.00 | 0.00 | 55 | 1017.5 |
| 20260902170901 | 93 | 185 | 2.6 | 9.6 | 0.00 | 0.00 | 0.00 | 57 | 1017.5 |
| 20260902170347 | 92 | 195 | 5.2 | 9.6 | 0.00 | 0.00 | 0.00 | 58 | 1017.6 |
| 20260902170045 | 92 | 191 | 2.6 | 11.3 | 0.00 | 0.00 | 0.00 | 57 | 1015.8 |
| 20260902165811 | 92 | 217 | 5.2 | 11.3 | 0.00 | 0.00 | 0.00 | 56 | 1017.7 |
| 20260902165308 | 92 | 200 | 3.5 | 11.3 | 0.00 | 0.00 | 0.00 | 56 | 1017.7 |
| 20260902164802 | 93 | 162 | 2.6 | 8.7 | 0.00 | 0.00 | 0.00 | 55 | 1017.7 |
| 20260902164518 | 92 | 250 | 1.7 | 7.8 | 0.00 | 0.00 | 0.00 | 56 | 1016.0 |
| 20260902164234 | 92 | 166 | 3.5 | 7.8 | 0.00 | 0.00 | 0.00 | 58 | 1017.6 |
| 20260902163955 | 92 | 169 | 3.5 | 7.0 | 0.00 | 0.00 | 0.00 | 57 | 1017.8 |
| 20260902163207 | 92 | 188 | 3.5 | 7.0 | 0.00 | 0.00 | 0.00 | 57 | 1017.8 |
| 20260902163052 | 91 | 190 | 2.6 | 7.0 | 0.00 | 0.00 | 0.00 | 58 | 1016.0 |
| 20260902162923 | 91 | 125 | 3.5 | 7.8 | 0.00 | 0.00 | 0.00 | 58 | 1017.7 |
| 20260902162200 | 91 | 194 | 3.5 | 8.7 | 0.00 | 0.00 | 0.00 | 58 | 1017.7 |
| 20260902161637 | 91 | 130 | 2.6 | 8.7 | 0.00 | 0.00 | 0.00 | 59 | 1017.7 |
| 20260902161605 | 91 | 129 | 2.6 | 8.7 | 0.00 | 0.00 | 0.00 | 60 | 1016.0 |
| 20260902161106 | 91 | 226 | 2.6 | 7.0 | 0.00 | 0.00 | 0.00 | 61 | 1017.7 |
| 20260902160604 | 90 | 172 | 2.6 | 7.0 | 0.00 | 0.00 | 0.00 | 62 | 1017.8 |
| 20260902160039 | 90 | 189 | 2.6 | 6.1 | 0.00 | 0.00 | 0.00 | 61 | 1017.9 |
| 20260902160009 | 90 | 181 | 1.7 | 5.2 | 0.00 | 0.00 | 0.00 | 61 | 1016.2 |
| 20260902155510 | 90 | 184 | 2.6 | 6.1 | 0.00 | 0.00 | 0.00 | 62 | 1017.9 |
| 20260902154945 | 90 | 205 | 2.6 | 5.2 | 0.00 | 0.00 | 0.00 | 63 | 1018.0 |
| 20260902154600 | 89 | 140 | 1.7 | 7.0 | 0.00 | 0.00 | 0.00 | 63 | 1016.2 |
| 20260902154417 | 89 | 146 | 2.6 | 7.0 | 0.00 | 0.00 | 0.00 | 65 | 1018.0 |
| 20260902153916 | 89 | 130 | 3.5 | 7.0 | 0.00 | 0.00 | 0.00 | 64 | 1018.0 |
| 20260902153348 | 89 | 190 | 2.6 | 7.8 | 0.00 | 0.00 | 0.00 | 65 | 1018.1 |
| 20260902153012 | 88 | 111 | 0.9 | 7.8 | 0.00 | 0.00 | 0.00 | 65 | 1016.5 |
| 20260902152821 | 89 | 194 | 2.6 | 7.8 | 0.00 | 0.00 | 0.00 | 63 | 1018.1 |
| 20260902152256 | 88 | 181 | 2.6 | 7.8 | 0.00 | 0.00 | 0.00 | 65 | 1018.1 |
| 20260902151752 | 88 | 91 | 1.7 | 6.1 | 0.00 | 0.00 | 0.00 | 67 | 1018.2 |
| 20260902151555 | 88 | 137 | 2.6 | 6.1 | 0.00 | 0.00 | 0.00 | 65 | 1016.4 |
| 20260902151252 | 88 | 189 | 1.7 | 3.5 | 0.00 | 0.00 | 0.00 | 66 | 1018.2 |
| 20260902150744 | 88 | 118 | 1.7 | 5.2 | 0.00 | 0.00 | 0.00 | 68 | 1018.2 |
| 20260902150241 | 87 | 226 | 1.7 | 7.8 | 0.00 | 0.00 | 0.00 | 66 | 1018.2 |
| 20260902150016 | 87 | 203 | 2.6 | 7.8 | 0.00 | 0.00 | 0.00 | 67 | 1016.5 |
| 20260902145716 | 87 | 157 | 1.7 | 7.8 | 0.00 | 0.00 | 0.00 | 68 | 1018.2 |
| 20260902145216 | 87 | 201 | 2.6 | 7.8 | 0.00 | 0.00 | 0.00 | 68 | 1018.2 |
| 20260902144649 | 86 | 186 | 2.6 | 7.8 | 0.00 | 0.00 | 0.00 | 69 | 1018.2 |
| 20260902144523 | 86 | 124 | 2.6 | 7.8 | 0.00 | 0.00 | 0.00 | 69 | 1016.5 |
| 20260902144123 | 86 | 199 | 2.6 | 7.0 | 0.00 | 0.00 | 0.00 | 69 | 1018.2 |
| 20260902143619 | 86 | 190 | 2.6 | 7.0 | 0.00 | 0.00 | 0.00 | 70 | 1018.2 |
| 20260902143115 | 85 | 65 | 1.7 | 5.2 | 0.00 | 0.00 | 0.00 | 70 | 1018.2 |
| 20260902143052 | 85 | 66 | 0.9 | 4.3 | 0.00 | 0.00 | 0.00 | 71 | 1016.5 |
| 20260902142611 | 85 | 199 | 1.7 | 5.2 | 0.00 | 0.00 | 0.00 | 73 | 1018.2 |
| 20260902142110 | 85 | 199 | 2.6 | 7.8 | 0.00 | 0.00 | 0.00 | 71 | 1018.1 |
| 20260902141811 | 85 | 198 | 2.6 | 9.6 | 0.00 | 0.00 | 0.00 | 71 | 1018.1 |
| 20260902141522 | 84 | 198 | 2.6 | 9.6 | 0.00 | 0.00 | 0.00 | 71 | 1016.4 |
| 20260902141041 | 84 | 222 | 2.6 | 9.6 | 0.00 | 0.00 | 0.00 | 72 | 1018.1 |
| 20260902140758 | 84 | 213 | 1.7 | 6.1 | 0.00 | 0.00 | 0.00 | 71 | 1018.1 |
| 20260902140052 | 83 | 180 | 1.7 | 6.1 | 0.00 | 0.00 | 0.00 | 72 | 1016.4 |
| 20260902140014 | 84 | 188 | 1.7 | 6.1 | 0.00 | 0.00 | 0.00 | 73 | 1018.1 |
| 20260902135444 | 83 | 176 | 1.7 | 7.0 | 0.00 | 0.00 | 0.00 | 74 | 1018.1 |
| 20260902135207 | 83 | 186 | 1.7 | 7.0 | 0.00 | 0.00 | 0.00 | 74 | 1018.1 |
| 20260902134502 | 83 | 213 | 0.9 | 5.2 | 0.00 | 0.00 | 0.00 | 76 | 1016.5 |
| 20260902134419 | 83 | 169 | 1.7 | 4.3 | 0.00 | 0.00 | 0.00 | 76 | 1018.1 |
| 20260902133911 | 83 | 140 | 1.7 | 6.1 | 0.00 | 0.00 | 0.00 | 75 | 1018.1 |
| 20260902133411 | 82 | 152 | 1.7 | 6.1 | 0.00 | 0.00 | 0.00 | 75 | 1018.1 |
| 20260902133010 | 82 | 123 | 0.9 | 2.6 | 0.00 | 0.00 | 0.00 | 78 | 1016.4 |
| 20260902132842 | 82 | 122 | 1.7 | 3.5 | 0.00 | 0.00 | 0.00 | 76 | 1018.1 |
| 20260902132340 | 81 | 121 | 1.7 | 3.5 | 0.00 | 0.00 | 0.00 | 77 | 1018.0 |
| 20260902131813 | 81 | 121 | 1.7 | 3.5 | 0.00 | 0.00 | 0.00 | 78 | 1018.0 |
| 20260902131543 | 80 | 121 | 0.9 | 3.5 | 0.00 | 0.00 | 0.00 | 79 | 1016.3 |
| 20260902131246 | 81 | 121 | 1.7 | 3.5 | 0.00 | 0.00 | 0.00 | 80 | 1018.0 |
| 20260902130721 | 80 | 132 | 0.9 | 3.5 | 0.00 | 0.00 | 0.00 | 80 | 1018.0 |
| 20260902130152 | 80 | 132 | 0.9 | 3.5 | 0.00 | 0.00 | 0.00 | 82 | 1018.0 |
| 20260902130100 | 79 | 132 | 0.0 | 3.5 | 0.00 | 0.00 | 0.00 | 82 | 1016.3 |
| 20260902125651 | 79 | 132 | 0.9 | 2.6 | 0.00 | 0.00 | 0.00 | 82 | 1018.0 |
| 20260902125126 | 79 | 132 | 0.9 | 2.6 | 0.00 | 0.00 | 0.00 | 82 | 1018.1 |
| 20260902124815 | 79 | 132 | 0.9 | 2.6 | 0.00 | 0.00 | 0.00 | 83 | 1018.0 |
| 20260902124514 | 78 | 132 | 0.9 | 1.7 | 0.00 | 0.00 | 0.00 | 83 | 1016.3 |
| 20260902124056 | 78 | 132 | 0.9 | 2.6 | 0.00 | 0.00 | 0.00 | 83 | 1018.0 |
| 20260902123549 | 78 | 132 | 0.9 | 2.6 | 0.00 | 0.00 | 0.00 | 84 | 1017.9 |
| 20260902123048 | 78 | 132 | 0.9 | 2.6 | 0.00 | 0.00 | 0.00 | 84 | 1017.9 |
| 20260902123018 | 77 | 132 | 0.9 | 2.6 | 0.00 | 0.00 | 0.00 | 84 | 1016.2 |
| 20260902122740 | 78 | 132 | 0.9 | 2.6 | 0.00 | 0.00 | 0.00 | 85 | 1017.9 |
| 20260902122018 | 77 | 132 | 0.9 | 2.6 | 0.00 | 0.00 | 0.00 | 85 | 1017.8 |
| 20260902121538 | 76 | 273 | 0.0 | 1.7 | 0.00 | 0.00 | 0.00 | 86 | 1016.1 |
| 20260902121514 | 77 | 130 | 0.9 | 2.6 | 0.00 | 0.00 | 0.00 | 86 | 1017.8 |
| 20260902121012 | 77 | 273 | 0.9 | 2.6 | 0.00 | 0.00 | 0.00 | 86 | 1017.7 |
| 20260902120510 | 76 | 126 | 0.0 | 2.6 | 0.00 | 0.00 | 0.00 | 87 | 1017.8 |
| 20260902120109 | 76 | 273 | 0.0 | 2.6 | 0.00 | 0.00 | 0.00 | 87 | 1016.2 |
| 20260902115942 | 76 | 124 | 0.0 | 1.7 | 0.00 | 0.00 | 0.00 | 87 | 1017.8 |
| 20260902115439 | 76 | 124 | 0.0 | 1.7 | 0.00 | 0.00 | 0.00 | 87 | 1017.7 |
| 20260902114913 | 76 | 124 | 0.0 | 0.0 | 0.00 | 0.00 | 0.00 | 87 | 1017.7 |
| 20260902114538 | 76 | 124 | 0.0 | 0.0 | 0.00 | 0.00 | 0.00 | 87 | 1015.9 |
| 20260902114412 | 76 | 124 | 0.0 | 0.0 | 0.00 | 0.00 | 0.00 | 87 | 1017.6 |
| 20260902113908 | 76 | 124 | 0.0 | 0.0 | 0.00 | 0.00 | 0.00 | 87 | 1017.5 |
| 20260902113342 | 76 | 124 | 0.0 | 0.9 | 0.00 | 0.00 | 0.00 | 87 | 1017.5 |
| 20260902113006 | 76 | 273 | 0.0 | 0.9 | 0.00 | 0.00 | 0.00 | 87 | 1015.7 |
| 20260902112817 | 76 | 273 | 0.0 | 0.9 | 0.00 | 0.00 | 0.00 | 87 | 1017.4 |
| 20260902112248 | 76 | 273 | 0.0 | 1.7 | 0.00 | 0.00 | 0.00 | 87 | 1017.4 |
| 20260902111746 | 76 | 273 | 0.0 | 1.7 | 0.00 | 0.00 | 0.00 | 87 | 1017.3 |
| 20260902111507 | 76 | 122 | 0.0 | 1.7 | 0.00 | 0.00 | 0.00 | 87 | 1015.5 |
| 20260902111220 | 76 | 273 | 0.0 | 0.9 | 0.00 | 0.00 | 0.00 | 87 | 1017.3 |
| 20260902110720 | 76 | 273 | 0.0 | 0.9 | 0.00 | 0.00 | 0.00 | 87 | 1017.3 |
| 20260902110409 | 76 | 121 | 0.0 | 1.7 | 0.00 | 0.00 | 0.00 | 87 | 1017.3 |
| 20260902110059 | 76 | 121 | 0.0 | 0.9 | 0.00 | 0.00 | 0.00 | 87 | 1015.6 |
| 20260902105912 | 76 | 121 | 0.0 | 1.7 | 0.00 | 0.00 | 0.00 | 87 | 1017.3 |
| 20260902105416 | 76 | 121 | 0.0 | 1.7 | 0.00 | 0.00 | 0.00 | 87 | 1017.3 |
| 20260902104644 | 76 | 121 | 0.0 | 0.9 | 0.00 | 0.00 | 0.00 | 87 | 1017.3 |
| 20260902104504 | 76 | 120 | 0.0 | 0.9 | 0.00 | 0.00 | 0.00 | 87 | 1015.6 |
| 20260902104340 | 76 | 121 | 0.0 | 0.0 | 0.00 | 0.00 | 0.00 | 87 | 1017.3 |
| 20260902103824 | 76 | 273 | 0.0 | 1.7 | 0.00 | 0.00 | 0.00 | 87 | 1017.4 |
| 20260902103109 | 76 | 121 | 0.0 | 1.7 | 0.00 | 0.00 | 0.00 | 86 | 1015.6 |
| 20260902103048 | 76 | 121 | 0.0 | 1.7 | 0.00 | 0.00 | 0.00 | 86 | 1017.3 |
| 20260902102812 | 76 | 120 | 0.0 | 1.7 | 0.00 | 0.00 | 0.00 | 86 | 1017.3 |
| 20260902102307 | 76 | 118 | 0.0 | 1.7 | 0.00 | 0.00 | 0.00 | 86 | 1017.2 |
| 20260902101805 | 77 | 118 | 0.0 | 0.9 | 0.00 | 0.00 | 0.00 | 86 | 1017.3 |
| 20260902101521 | 76 | 118 | 0.0 | 0.9 | 0.00 | 0.00 | 0.00 | 86 | 1015.5 |
| 20260902101013 | 77 | 118 | 0.0 | 0.9 | 0.00 | 0.00 | 0.00 | 85 | 1017.3 |
| 20260902100509 | 77 | 118 | 0.0 | 0.9 | 0.00 | 0.00 | 0.00 | 85 | 1017.3 |
| 20260902100022 | 77 | 118 | 0.0 | 0.9 | 0.00 | 0.00 | 0.00 | 85 | 1015.4 |
| 20260902095941 | 77 | 118 | 0.0 | 0.9 | 0.00 | 0.00 | 0.00 | 85 | 1017.2 |
| 20260902095856 | 77 | 273 | 0.0 | 0.9 | 0.00 | 0.00 | 0.00 | 84 | 1017.2 |
| 20260902094851 | 77 | 118 | 0.0 | 1.7 | 0.00 | 0.00 | 0.00 | 84 | 1017.2 |
| 20260902094509 | 77 | 273 | 0.0 | 2.6 | 0.00 | 0.00 | 0.00 | 84 | 1015.4 |
| 20260902094341 | 78 | 118 | 0.0 | 2.6 | 0.00 | 0.00 | 0.00 | 84 | 1017.2 |
| 20260902093840 | 78 | 117 | 0.9 | 2.6 | 0.00 | 0.00 | 0.00 | 84 | 1017.2 |
| 20260902093314 | 78 | 118 | 0.0 | 1.7 | 0.00 | 0.00 | 0.00 | 83 | 1017.2 |
| 20260902093026 | 77 | 118 | 0.0 | 0.9 | 0.00 | 0.00 | 0.00 | 83 | 1015.4 |
| 20260902092747 | 78 | 118 | 0.0 | 0.9 | 0.00 | 0.00 | 0.00 | 83 | 1017.1 |
| 20260902092452 | 78 | 118 | 0.0 | 0.9 | 0.00 | 0.00 | 0.00 | 83 | 1017.2 |
| 20260902091932 | 78 | 118 | 0.0 | 0.9 | 0.00 | 0.00 | 0.00 | 83 | 1017.1 |
| 20260902091536 | 78 | 118 | 0.0 | 0.9 | 0.00 | 0.00 | 0.00 | 83 | 1015.3 |
| 20260902091144 | 78 | 118 | 0.0 | 1.7 | 0.00 | 0.00 | 0.00 | 83 | 1017.2 |
| 20260902090642 | 78 | 118 | 0.0 | 1.7 | 0.00 | 0.00 | 0.00 | 83 | 1017.1 |
| 20260902090138 | 78 | 118 | 0.0 | 1.7 | 0.00 | 0.00 | 0.00 | 83 | 1017.0 |
| 20260902090055 | 78 | 118 | 0.0 | 1.7 | 0.00 | 0.00 | 0.00 | 83 | 1015.2 |
| 20260902085639 | 78 | 118 | 0.0 | 1.7 | 0.00 | 0.00 | 0.00 | 82 | 1016.8 |
| 20260902085357 | 79 | 273 | 0.0 | 1.7 | 0.00 | 0.00 | 0.00 | 82 | 1016.8 |
| 20260902085115 | 78 | 118 | 0.0 | 1.7 | 0.00 | 0.00 | 0.00 | 82 | 1016.8 |
| 20260902084807 | 79 | 273 | 0.0 | 1.7 | 0.00 | 0.00 | 0.00 | 81 | 1016.6 |
| 20260902084554 | 78 | 273 | 0.0 | 1.7 | 0.00 | 0.00 | 0.00 | 81 | 1015.1 |
| 20260902083556 | 79 | 118 | 0.0 | 1.7 | 0.00 | 0.00 | 0.00 | 81 | 1016.5 |
| 20260902083315 | 79 | 118 | 0.9 | 1.7 | 0.00 | 0.00 | 0.00 | 80 | 1016.5 |
| 20260902083038 | 79 | 118 | 0.0 | 1.7 | 0.00 | 0.00 | 0.00 | 80 | 1014.8 |
| 20260902082527 | 79 | 118 | 0.0 | 2.6 | 0.00 | 0.00 | 0.00 | 80 | 1016.4 |
| 20260902082243 | 79 | 118 | 0.0 | 2.6 | 0.00 | 0.00 | 0.00 | 80 | 1016.4 |
| 20260902081617 | 79 | 118 | 0.0 | 2.6 | 0.00 | 0.00 | 0.00 | 80 | 1014.8 |
| 20260902081523 | 79 | 118 | 0.0 | 1.7 | 0.00 | 0.00 | 0.00 | 80 | 1016.5 |
| 20260902081009 | 79 | 273 | 0.0 | 2.6 | 0.00 | 0.00 | 0.00 | 80 | 1016.4 |
| 20260902080700 | 79 | 273 | 0.0 | 2.6 | 0.00 | 0.00 | 0.00 | 80 | 1016.4 |
| 20260902080109 | 79 | 273 | 0.0 | 2.6 | 0.00 | 0.00 | 0.00 | 79 | 1014.8 |
| 20260902075940 | 79 | 273 | 0.0 | 1.7 | 0.00 | 0.00 | 0.00 | 79 | 1016.4 |
| 20260902075441 | 79 | 273 | 0.0 | 1.7 | 0.00 | 0.00 | 0.00 | 79 | 1016.4 |
| 20260902074915 | 80 | 119 | 0.0 | 1.7 | 0.00 | 0.00 | 0.00 | 79 | 1016.3 |
| 20260902074538 | 79 | 273 | 0.0 | 2.6 | 0.00 | 0.00 | 0.00 | 78 | 1014.7 |
| 20260902074347 | 80 | 273 | 0.0 | 2.6 | 0.00 | 0.00 | 0.00 | 78 | 1016.3 |
| 20260902073822 | 80 | 120 | 0.0 | 1.7 | 0.00 | 0.00 | 0.00 | 78 | 1016.3 |
| 20260902073305 | 80 | 273 | 0.0 | 1.7 | 0.00 | 0.00 | 0.00 | 77 | 1016.4 |
| 20260902073100 | 79 | 273 | 0.0 | 0.9 | 0.00 | 0.00 | 0.00 | 77 | 1014.7 |
| 20260902072805 | 80 | 120 | 0.0 | 0.9 | 0.00 | 0.00 | 0.00 | 77 | 1016.4 |
| 20260902072244 | 80 | 121 | 0.0 | 1.7 | 0.00 | 0.00 | 0.00 | 77 | 1016.4 |
| 20260902071718 | 80 | 120 | 0.9 | 1.7 | 0.00 | 0.00 | 0.00 | 77 | 1016.3 |
| 20260902071516 | 80 | 121 | 0.0 | 1.7 | 0.00 | 0.00 | 0.00 | 77 | 1014.7 |
| 20260902071219 | 80 | 121 | 0.9 | 3.5 | 0.00 | 0.00 | 0.00 | 77 | 1016.3 |
| 20260902070709 | 80 | 121 | 0.9 | 3.5 | 0.00 | 0.00 | 0.00 | 77 | 1016.4 |
| 20260902070209 | 80 | 122 | 0.9 | 2.6 | 0.00 | 0.00 | 0.00 | 77 | 1016.3 |
| 20260902070024 | 80 | 122 | 0.9 | 2.6 | 0.00 | 0.00 | 0.00 | 77 | 1014.7 |
| 20260902065649 | 80 | 122 | 0.9 | 1.7 | 0.00 | 0.00 | 0.00 | 77 | 1016.4 |
| 20260902065147 | 80 | 122 | 0.9 | 2.6 | 0.00 | 0.00 | 0.00 | 77 | 1016.4 |
| 20260902064647 | 80 | 122 | 0.9 | 2.6 | 0.00 | 0.00 | 0.00 | 77 | 1016.4 |
| 20260902064523 | 80 | 121 | 0.9 | 2.6 | 0.00 | 0.00 | 0.00 | 77 | 1014.7 |
| 20260902064122 | 80 | 122 | 0.0 | 1.7 | 0.00 | 0.00 | 0.00 | 77 | 1016.4 |
| 20260902063603 | 80 | 273 | 0.0 | 1.7 | 0.00 | 0.00 | 0.00 | 77 | 1016.3 |
| 20260902063104 | 80 | 121 | 0.0 | 2.6 | 0.00 | 0.00 | 0.00 | 77 | 1016.3 |
| 20260902063050 | 80 | 122 | 0.0 | 2.6 | 0.00 | 0.00 | 0.00 | 77 | 1016.3 |
| 20260902063004 | 80 | 273 | 0.9 | 2.6 | 0.00 | 0.00 | 0.00 | 77 | 1014.6 |
| 20260902062104 | 81 | 122 | 0.0 | 2.6 | 0.00 | 0.00 | 0.00 | 77 | 1016.4 |
| 20260902061605 | 81 | 122 | 0.9 | 2.6 | 0.00 | 0.00 | 0.00 | 76 | 1016.4 |
| 20260902061544 | 80 | 122 | 0.0 | 2.6 | 0.00 | 0.00 | 0.00 | 76 | 1014.7 |
| 20260902061300 | 81 | 122 | 0.9 | 2.6 | 0.00 | 0.00 | 0.00 | 76 | 1016.3 |
| 20260902060518 | 81 | 122 | 0.9 | 2.6 | 0.00 | 0.00 | 0.00 | 76 | 1016.4 |
| 20260902060227 | 81 | 120 | 0.9 | 1.7 | 0.00 | 0.00 | 0.00 | 75 | 1016.4 |
| 20260902060106 | 81 | 120 | 0.9 | 2.6 | 0.00 | 0.00 | 0.00 | 75 | 1016.4 |
| 20260902060031 | 81 | 273 | 0.9 | 2.6 | 0.00 | 0.00 | 0.00 | 75 | 1014.7 |
| 20260902054955 | 81 | 119 | 0.9 | 1.7 | 0.00 | 0.00 | 0.00 | 75 | 1016.4 |
| 20260902054535 | 81 | 120 | 0.0 | 1.7 | 0.00 | 0.00 | 0.00 | 75 | 1014.7 |
| 20260902054457 | 81 | 120 | 0.9 | 1.7 | 0.00 | 0.00 | 0.00 | 75 | 1016.4 |
| 20260902053939 | 82 | 273 | 0.9 | 1.7 | 0.00 | 0.00 | 0.00 | 74 | 1016.4 |
| 20260902053639 | 82 | 120 | 0.9 | 1.7 | 0.00 | 0.00 | 0.00 | 74 | 1016.4 |
| 20260902053057 | 81 | 120 | 0.9 | 1.7 | 0.00 | 0.00 | 0.00 | 74 | 1014.8 |
| 20260902052907 | 82 | 120 | 0.9 | 1.7 | 0.00 | 0.00 | 0.00 | 74 | 1016.4 |
| 20260902052345 | 82 | 120 | 0.9 | 1.7 | 0.00 | 0.00 | 0.00 | 74 | 1016.4 |
| 20260902051815 | 82 | 120 | 0.9 | 2.6 | 0.00 | 0.00 | 0.00 | 74 | 1016.4 |
| 20260902051503 | 81 | 120 | 0.0 | 2.6 | 0.00 | 0.00 | 0.00 | 74 | 1014.8 |
| 20260902051316 | 82 | 120 | 0.9 | 2.6 | 0.00 | 0.00 | 0.00 | 74 | 1016.5 |
| 20260902050749 | 82 | 118 | 0.9 | 2.6 | 0.00 | 0.00 | 0.00 | 74 | 1016.5 |
| 20260902050446 | 82 | 273 | 0.0 | 1.7 | 0.00 | 0.00 | 0.00 | 73 | 1016.4 |
| 20260902050104 | 82 | 273 | 0.0 | 1.7 | 0.00 | 0.00 | 0.00 | 73 | 1014.8 |
| 20260902045701 | 82 | 273 | 0.0 | 1.7 | 0.00 | 0.00 | 0.00 | 73 | 1016.4 |
| 20260902045155 | 82 | 273 | 0.0 | 1.7 | 0.00 | 0.00 | 0.00 | 73 | 1016.4 |
| 20260902044653 | 83 | 273 | 0.0 | 1.7 | 0.00 | 0.00 | 0.00 | 73 | 1016.4 |
| 20260902044551 | 82 | 273 | 0.0 | 1.7 | 0.00 | 0.00 | 0.00 | 73 | 1014.8 |
| 20260902044153 | 83 | 273 | 0.9 | 1.7 | 0.00 | 0.00 | 0.00 | 72 | 1016.5 |
| 20260902043625 | 83 | 273 | 0.9 | 2.6 | 0.00 | 0.00 | 0.00 | 72 | 1016.4 |
| 20260902043326 | 83 | 117 | 0.9 | 3.5 | 0.00 | 0.00 | 0.00 | 71 | 1016.4 |
| 20260902043023 | 83 | 116 | 0.0 | 3.5 | 0.00 | 0.00 | 0.00 | 71 | 1014.8 |
| 20260902042611 | 83 | 115 | 0.9 | 3.5 | 0.00 | 0.00 | 0.00 | 71 | 1016.4 |
| 20260902042341 | 83 | 114 | 0.9 | 2.6 | 0.00 | 0.00 | 0.00 | 71 | 1016.5 |
| 20260902041546 | 83 | 114 | 0.9 | 2.6 | 0.00 | 0.00 | 0.00 | 71 | 1016.4 |
| 20260902041515 | 83 | 114 | 0.9 | 2.6 | 0.00 | 0.00 | 0.00 | 71 | 1014.8 |
| 20260902041020 | 83 | 114 | 0.9 | 2.6 | 0.00 | 0.00 | 0.00 | 71 | 1016.5 |
| 20260902040914 | 84 | 114 | 0.9 | 2.6 | 0.00 | 0.00 | 0.00 | 70 | 1016.5 |
| 20260902040538 | 84 | 114 | 0.9 | 1.7 | 0.00 | 0.00 | 0.00 | 70 | 1016.5 |
| 20260902040014 | 83 | 113 | 0.9 | 2.6 | 0.00 | 0.00 | 0.00 | 70 | 1014.9 |
| 20260902035418 | 84 | 114 | 0.9 | 2.6 | 0.00 | 0.00 | 0.00 | 70 | 1016.5 |
| 20260902034852 | 84 | 113 | 0.9 | 2.6 | 0.00 | 0.00 | 0.00 | 69 | 1016.5 |
| 20260902034541 | 83 | 109 | 0.9 | 3.5 | 0.00 | 0.00 | 0.00 | 69 | 1014.9 |
| 20260902034346 | 84 | 108 | 0.9 | 3.5 | 0.00 | 0.00 | 0.00 | 69 | 1016.5 |
| 20260902033822 | 84 | 126 | 0.9 | 2.6 | 0.00 | 0.00 | 0.00 | 69 | 1016.5 |
| 20260902033253 | 84 | 126 | 0.9 | 2.6 | 0.00 | 0.00 | 0.00 | 69 | 1016.5 |
| 20260902033102 | 84 | 126 | 0.9 | 2.6 | 0.00 | 0.00 | 0.00 | 68 | 1014.8 |
| 20260902032753 | 84 | 125 | 0.9 | 2.6 | 0.00 | 0.00 | 0.00 | 68 | 1016.4 |
| 20260902032246 | 85 | 124 | 0.9 | 2.6 | 0.00 | 0.00 | 0.00 | 68 | 1016.4 |
| 20260902031745 | 85 | 124 | 0.9 | 2.6 | 0.00 | 0.00 | 0.00 | 67 | 1016.4 |
| 20260902031604 | 84 | 124 | 0.0 | 2.6 | 0.00 | 0.00 | 0.00 | 67 | 1014.7 |
| 20260902031234 | 85 | 124 | 0.9 | 2.6 | 0.00 | 0.00 | 0.00 | 67 | 1016.4 |
| 20260902030735 | 85 | 124 | 0.9 | 2.6 | 0.00 | 0.00 | 0.00 | 67 | 1016.4 |
| 20260902030209 | 85 | 124 | 0.9 | 2.6 | 0.00 | 0.00 | 0.00 | 67 | 1016.4 |
| 20260902030029 | 85 | 124 | 0.9 | 2.6 | 0.00 | 0.00 | 0.00 | 66 | 1014.8 |
| 20260902025905 | 85 | 125 | 0.9 | 2.6 | 0.00 | 0.00 | 0.00 | 66 | 1016.4 |
| 20260902025358 | 85 | 126 | 0.9 | 2.6 | 0.00 | 0.00 | 0.00 | 66 | 1016.4 |
| 20260902024611 | 85 | 126 | 0.9 | 2.6 | 0.00 | 0.00 | 0.00 | 66 | 1016.4 |
| 20260902024522 | 85 | 127 | 0.0 | 2.6 | 0.00 | 0.00 | 0.00 | 65 | 1014.8 |
| 20260902024111 | 86 | 126 | 0.9 | 2.6 | 0.00 | 0.00 | 0.00 | 65 | 1016.4 |
| 20260902023541 | 86 | 124 | 0.9 | 3.5 | 0.00 | 0.00 | 0.00 | 65 | 1016.4 |
| 20260902023041 | 86 | 124 | 0.9 | 3.5 | 0.00 | 0.00 | 0.00 | 65 | 1016.4 |
| 20260902023009 | 85 | 124 | 0.9 | 3.5 | 0.00 | 0.00 | 0.00 | 65 | 1014.8 |
| 20260902022510 | 86 | 124 | 0.9 | 2.6 | 0.00 | 0.00 | 0.00 | 65 | 1016.4 |
| 20260902022233 | 86 | 124 | 1.7 | 2.6 | 0.00 | 0.00 | 0.00 | 64 | 1016.4 |
| 20260902021608 | 86 | 125 | 0.9 | 2.6 | 0.00 | 0.00 | 0.00 | 64 | 1014.8 |
| 20260902021442 | 86 | 125 | 0.9 | 2.6 | 0.00 | 0.00 | 0.00 | 64 | 1016.4 |
| 20260902020939 | 86 | 91 | 0.9 | 4.3 | 0.00 | 0.00 | 0.00 | 64 | 1016.4 |
| 20260902020638 | 86 | 87 | 1.7 | 4.3 | 0.00 | 0.00 | 0.00 | 64 | 1016.3 |
| 20260902020033 | 86 | 85 | 0.0 | 2.6 | 0.00 | 0.00 | 0.00 | 64 | 1014.7 |
| 20260902015905 | 86 | 84 | 0.9 | 3.5 | 0.00 | 0.00 | 0.00 | 64 | 1016.3 |
| 20260902015405 | 86 | 78 | 0.9 | 4.3 | 0.00 | 0.00 | 0.00 | 63 | 1016.2 |
| 20260902014859 | 87 | 77 | 0.9 | 4.3 | 0.00 | 0.00 | 0.00 | 63 | 1016.2 |
| 20260902014547 | 86 | 68 | 0.0 | 2.6 | 0.00 | 0.00 | 0.00 | 63 | 1014.6 |
| 20260902014359 | 87 | 68 | 0.9 | 2.6 | 0.00 | 0.00 | 0.00 | 63 | 1016.2 |
| 20260902013832 | 87 | 113 | 0.9 | 3.5 | 0.00 | 0.00 | 0.00 | 62 | 1016.2 |
| 20260902013325 | 87 | 114 | 1.7 | 3.5 | 0.00 | 0.00 | 0.00 | 61 | 1016.2 |
| 20260902013056 | 87 | 116 | 0.9 | 4.3 | 0.00 | 0.00 | 0.00 | 61 | 1014.6 |
| 20260902012822 | 87 | 142 | 1.7 | 4.3 | 0.00 | 0.00 | 0.00 | 61 | 1016.2 |
| 20260902012254 | 87 | 145 | 0.9 | 3.5 | 0.00 | 0.00 | 0.00 | 61 | 1016.1 |
| 20260902012017 | 87 | 149 | 0.9 | 2.6 | 0.00 | 0.00 | 0.00 | 61 | 1016.1 |
| 20260902011528 | 87 | 155 | 0.9 | 2.6 | 0.00 | 0.00 | 0.00 | 62 | 1014.4 |
| 20260902011224 | 87 | 156 | 0.9 | 1.7 | 0.00 | 0.00 | 0.00 | 61 | 1016.0 |
| 20260902010657 | 87 | 156 | 0.0 | 1.7 | 0.00 | 0.00 | 0.00 | 61 | 1016.0 |
| 20260902010131 | 87 | 156 | 0.0 | 1.7 | 0.00 | 0.00 | 0.00 | 61 | 1016.0 |
| 20260902010101 | 87 | 156 | 0.0 | 1.7 | 0.00 | 0.00 | 0.00 | 61 | 1014.3 |
| 20260902005603 | 87 | 156 | 0.0 | 1.7 | 0.00 | 0.00 | 0.00 | 61 | 1015.9 |
| 20260902005101 | 87 | 155 | 0.0 | 0.9 | 0.00 | 0.00 | 0.00 | 60 | 1015.9 |
| 20260902004537 | 87 | 156 | 0.0 | 1.7 | 0.00 | 0.00 | 0.00 | 60 | 1015.9 |
| 20260902004506 | 87 | 155 | 0.0 | 0.9 | 0.00 | 0.00 | 0.00 | 60 | 1014.2 |
| 20260902004228 | 88 | 156 | 0.0 | 2.6 | 0.00 | 0.00 | 0.00 | 60 | 1015.9 |
| 20260902003505 | 88 | 156 | 0.9 | 2.6 | 0.00 | 0.00 | 0.00 | 59 | 1015.8 |
| 20260902003202 | 88 | 154 | 0.9 | 2.6 | 0.00 | 0.00 | 0.00 | 59 | 1015.8 |
| 20260902003131 | 88 | 156 | 0.9 | 2.6 | 0.00 | 0.00 | 0.00 | 59 | 1014.2 |
| 20260902002414 | 88 | 153 | 0.9 | 3.5 | 0.00 | 0.00 | 0.00 | 58 | 1015.9 |
| 20260902001849 | 89 | 144 | 0.9 | 3.5 | 0.00 | 0.00 | 0.00 | 58 | 1015.9 |
| 20260902001514 | 88 | 153 | 0.9 | 3.5 | 0.00 | 0.00 | 0.00 | 58 | 1014.3 |
| 20260902001323 | 89 | 149 | 0.9 | 3.5 | 0.00 | 0.00 | 0.00 | 58 | 1015.9 |
| 20260902000757 | 89 | 203 | 0.9 | 3.5 | 0.00 | 0.00 | 0.00 | 57 | 1016.0 |
| 20260902000230 | 89 | 193 | 0.9 | 5.2 | 0.00 | 0.00 | 0.00 | 57 | 1016.0 |
| 20260902000221 | 89 | 203 | 0.9 | 5.2 | 0.00 | 0.00 | 0.00 | 56 | 1016.0 |
| 20260902000029 | 89 | 203 | 0.0 | 5.2 | 0.00 | 0.00 | 0.00 | 56 | 1014.4 |
| 20260901235206 | 90 | 212 | 0.9 | 4.3 | 0.00 | 0.00 | 0.00 | 55 | 1016.0 |
| 20260901234640 | 90 | 236 | 0.9 | 4.3 | 0.00 | 0.00 | 0.00 | 55 | 1016.0 |
| 20260901234548 | 90 | 236 | 1.7 | 4.3 | 0.00 | 0.00 | 0.00 | 55 | 1014.4 |
| 20260901234139 | 90 | 183 | 0.9 | 3.5 | 0.00 | 0.00 | 0.00 | 54 | 1016.1 |
| 20260901233616 | 90 | 182 | 1.7 | 4.3 | 0.00 | 0.00 | 0.00 | 53 | 1016.1 |
| 20260901233312 | 91 | 228 | 1.7 | 4.3 | 0.00 | 0.00 | 0.00 | 52 | 1016.1 |
| 20260901233106 | 90 | 215 | 0.9 | 3.5 | 0.00 | 0.00 | 0.00 | 52 | 1014.5 |
| 20260901232812 | 91 | 198 | 1.7 | 4.3 | 0.00 | 0.00 | 0.00 | 51 | 1016.1 |
| 20260901232026 | 91 | 76 | 1.7 | 6.1 | 0.00 | 0.00 | 0.00 | 52 | 1016.2 |